Regional Weather Roundup
Issued by NWS

Home | Current Version | Previous Version | Graphics & Text | Print | Product List | Glossary On
Versions: 1 2 3 4 5 6 7 8 9 10 11 12 13 14 15 16 17 18 19 20 21 22 23 24 25 26 27 28 29 30 31 32 33 34 35 36 37 38 39 40 41 42 43 44 45 46 47 48 49 50
181
ASUS43 KOAX 281802
RWRNE

WEATHER ROUNDUP FOR NEBRASKA
NATIONAL WEATHER SERVICE OMAHA NE
100 PM CDT TUE MAR 28 2017

NOTES: SATELLITE DATA IS BEING USED TO AUGMENT CLOUD COVER ABOVE
       12000 FEET.
       "FAIR" INDICATES FEW OR NO CLOUDS BELOW 12,000 FEET WITH NO
       SIGNIFICANT WEATHER AND/OR OBSTRUCTIONS TO VISIBILITY.

  * THESE STATIONS DO NOT REPORT WEATHER SUCH AS RAIN...SNOW OR FOG.

NEZ001>004-019>022-054>056-281900-
NEBRASKA PANHANDLE

CITY           SKY/WX    TMP DP  RH WIND       PRES   REMARKS
SCOTTSBLUFF    LGT RAIN  47  43  86 E21       29.92F
6HR MIN TEMP:  45; 6HR MAX TEMP:  47; 6HR PCP:  0.12;

ALLIANCE       LGT RAIN  44  42  93 E17       29.95F
6HR MIN TEMP:  43; 6HR MAX TEMP:  45; 6HR PCP:  0.71;

CHADRON        LGT RAIN  44  41  89 NE12      30.01S
6HR MIN TEMP:  43; 6HR MAX TEMP:  46; 6HR PCP:  0.55;

KIMBALL        DRIZZLE   44  44 100 E10       29.91S
SIDNEY         LGT RAIN  43  42  97 E17       29.92S FOG
6HR MIN TEMP:  43; 6HR MAX TEMP:  45; 6HR PCP:  0.03;

$$

NEZ057>060-069>072-079>082-281900-
SOUTHWEST NEBRASKA

CITY           SKY/WX    TMP DP  RH WIND       PRES   REMARKS
NORTH PLATTE   LGT RAIN  45  44  97 E13       30.01F FOG
6HR MIN TEMP:  44; 6HR MAX TEMP:  45; 6HR PCP:  0.04;

IMPERIAL       LGT RAIN  46  43  89 E13       29.94F
6HR MIN TEMP:  45; 6HR MAX TEMP:  46; 6HR PCP:  0.18;

LEXINGTON      CLOUDY    50  43  75 E12       30.01F
MCCOOK         LGT RAIN  46  45  96 E14       29.97S FOG
6HR MIN TEMP:  45; 6HR MAX TEMP:  46; 6HR PCP:  0.02;

OGALLALA       LGT RAIN  46  44  95 E14       29.97S
$$

NEZ005>010-023>029-035>040-094-281900-
NORTH CENTRAL NEBRASKA

CITY           SKY/WX    TMP DP  RH WIND       PRES   REMARKS
VALENTINE      CLOUDY    47  43  86 E6        30.07R
6HR MIN TEMP:  45; 6HR MAX TEMP:  48; 6HR PCP:  0.02;

AINSWORTH      CLOUDY    48  44  86 E7        30.07R
BROKEN BOW     CLOUDY    48  43  82 E12       30.04F
6HR MIN TEMP:  41; 6HR MAX TEMP:  48;

O`NEILL        CLOUDY    49  43  78 E9        30.10S
ORD            CLOUDY    51  39  63 E12       30.05F
6HR MIN TEMP:  41; 6HR MAX TEMP:  52;

THEDFORD       DRIZZLE   46  43  92 E6        30.05F
$$

NEZ041-046>049-061>064-073>077-083>087-281900-
SOUTH CENTRAL NEBRASKA

CITY           SKY/WX    TMP DP  RH WIND       PRES   REMARKS
GRAND ISLAND   CLOUDY    50  41  71 E15       30.05F
6HR MIN TEMP:  31; 6HR MAX TEMP:  50;

AURORA         CLOUDY    49  43  78 E15       30.05F
HASTINGS       CLOUDY    52  41  66 E13       30.04F
6HR MIN TEMP:  40; 6HR MAX TEMP:  53;

HEBRON         CLOUDY    52  40  65 E14       30.03F
HOLDREGE       CLOUDY    52  42  68 E13       30.00F
KEARNEY *      CLOUDY    54  39  58 E14       30.02F
YORK           CLOUDY    48  41  76 E12       30.07F
$$

NEZ011>018-030>034-042>045-281900-
NORTHEAST NEBRASKA

CITY           SKY/WX    TMP DP  RH WIND       PRES   REMARKS
NORFOLK        CLOUDY    51  39  63 SE12      30.09F
6HR MIN TEMP:  32; 6HR MAX TEMP:  51;

ALBION         CLOUDY    49  40  70 E10       30.09F
FREMONT        CLOUDY    48  41  75 E7        30.12F
TEKAMAH        CLOUDY    50  42  74 E8        30.13F
6HR MIN TEMP:  33; 6HR MAX TEMP:  50;

WAYNE          CLOUDY    54  41  61 E10       30.11F
$$

NEZ050>053-065>068-078-088>093-281900-
SOUTHEAST NEBRASKA

CITY           SKY/WX    TMP DP  RH WIND       PRES   REMARKS
LINCOLN        CLOUDY    50  40  68 E12       30.10F
6HR MIN TEMP:  29; 6HR MAX TEMP:  50;

OMAHA EPPLEY   CLOUDY    49  41  74 E9        30.12F
6HR MIN TEMP:  39; 6HR MAX TEMP:  50;

BEATRICE       CLOUDY    51  42  72 E8        30.06F
FALLS CITY     CLOUDY    51  43  74 E10       30.08F
6HR MIN TEMP:  46; 6HR MAX TEMP:  51;

NEBRASKA CITY  CLOUDY    49  38  66 E8        30.10F
PLATTSMOUTH    CLOUDY    49  38  65 E7        30.10F
$$

NEZ044-045-051>053-067-281900-
OMAHA AREA

CITY           SKY/WX    TMP DP  RH WIND       PRES   REMARKS
OMAHA EPPLEY   CLOUDY    49  41  74 E9        30.12F
6HR MIN TEMP:  39; 6HR MAX TEMP:  50;

FREMONT        CLOUDY    48  41  75 E7        30.12F
MILLARD        CLOUDY    50  43  76 NE3       30.11F
OFFUTT AFB     CLOUDY    49  41  75 NE8       30.10F
PLATTSMOUTH    CLOUDY    49  38  65 E7        30.10F
WAHOO          CLOUDY    48  41  77 NE7       30.11F
$$




USA.gov is the U.S. government's official web portal to all federal, state and local government web resources and services.